Weather History for KPSO - November, 2013

Change the Weather History Date:

Monday, November 18, 2013

  Actual Average (KDRO) Record (KDRO)
Temperature  
Mean Temperature 36 °F 35 °F  
Max Temperature 49 °F 48 °F 64 °F (2008)
Min Temperature 24 °F 21 °F 10 °F (1980)
Degree Days  
Heating Degree Days 28 30  
Month to date heating degree days 492  
Since 1 July heating degree days 1280  
Cooling Degree Days 0 0  
Month to date cooling degree days 0  
Year to date cooling degree days 243  
Moisture  
Dew Point 25 °F    
Average Humidity 74    
Maximum Humidity 99    
Minimum Humidity 26    
Precipitation  
Precipitation 0.00 in 0.06 in 0.84 in (1983)
Month to date precipitation 1.05  
Year to date precipitation 14.27  
Sea Level Pressure  
Sea Level Pressure 30.26 in    
Wind  
Wind Speed 0 mph (SSW)    
Max Wind Speed 4 mph    
Max Gust Speed -    
Visibility 10 miles    
Events      
T = Trace of Precipitation, MM = Missing Value Source: NWS Daily Summary

Daily Weather History Graph

Daily Weather History Graph

Search for Another Location

Airport or City:

Trip Planner

Search our weather history database for the weather conditions in past years. The results will help you decide how hot, cold, wet, or windy it might be!

Date:

Astronomy

Nov. 18, 2013 Rise Set
Actual Time 6:50 AM MST 4:55 PM MST
Civil Twilight 6:22 AM MST 5:23 PM MST
Nautical Twilight 5:51 AM MST 5:55 PM MST
Astronomical Twilight 5:20 AM MST 6:26 PM MST
Moon 6:00 PM MST (11/18) 7:41 AM MST (11/18)
Length of Visible Light 11h 00m
Length of Day
10h 04m
Full, 99% of the Moon is Illuminated
Nov 18
Full
Nov 25
Last Quarter
Dec 2
New
Dec 9
First Quarter
Dec 17
Full

Hourly Weather History & Observations

Time (MST) Temp. Windchill Dew Point Humidity Pressure Visibility Wind Dir Wind Speed Gust Speed Precip Events Conditions
12:15 AM 28.2 °F - 28.0 °F 99% 30.26 in 10.0 mi Calm Calm - N/A   Clear
12:35 AM 29.3 °F - 29.1 °F 99% 30.26 in 10.0 mi Calm Calm - N/A   Scattered Clouds
12:55 AM 29.3 °F - 29.1 °F 99% 30.27 in 10.0 mi Calm Calm - N/A   Scattered Clouds
1:15 AM 27.3 °F - 27.0 °F 99% 30.27 in 10.0 mi Calm Calm - N/A   Clear
1:35 AM 28.2 °F - 28.0 °F 99% 30.27 in 10.0 mi Calm Calm - N/A   Clear
1:55 AM 28.8 °F - 28.4 °F 99% 30.27 in 10.0 mi Calm Calm - N/A   Clear
2:15 AM 27.3 °F - 26.6 °F 97% 30.27 in 10.0 mi Calm Calm - N/A   Clear
2:35 AM 27.7 °F - 27.1 °F 98% 30.27 in 10.0 mi Calm Calm - N/A   Clear
2:55 AM 27.7 °F - 27.0 °F 97% 30.27 in 10.0 mi Calm Calm - N/A   Clear
3:15 AM 26.6 °F - 26.1 °F 98% 30.27 in 10.0 mi Calm Calm - N/A   Clear
3:35 AM 27.1 °F - 26.6 °F 98% 30.27 in 10.0 mi Calm Calm - N/A   Clear
3:55 AM 27.3 °F - 26.8 °F 98% 30.27 in 10.0 mi Calm Calm - N/A   Clear
4:15 AM 26.6 °F - 26.2 °F 99% 30.27 in 10.0 mi Calm Calm - N/A   Clear
4:35 AM 26.4 °F - 26.1 °F 99% 30.28 in 10.0 mi Calm Calm - N/A   Clear
4:55 AM 26.4 °F - 26.1 °F 99% 30.28 in 10.0 mi Calm Calm - N/A   Clear
5:15 AM 26.8 °F - 26.4 °F 99% 30.28 in 10.0 mi Calm Calm - N/A   Clear
5:35 AM 25.5 °F - 25.0 °F 98% 30.28 in 10.0 mi Calm Calm - N/A   Clear
5:55 AM 24.8 °F - 24.4 °F 99% 30.28 in 10.0 mi Calm Calm - N/A   Clear
6:15 AM 25.9 °F - 25.5 °F 99% 30.28 in 10.0 mi Calm Calm - N/A   Clear
6:35 AM 26.2 °F - 25.7 °F 98% 30.28 in 10.0 mi Calm Calm - N/A   Clear
6:55 AM 24.6 °F - 24.1 °F 98% 30.29 in 10.0 mi Calm Calm - N/A   Clear
7:15 AM 24.6 °F - 24.1 °F 98% 30.29 in 10.0 mi Calm Calm - N/A   Clear
7:35 AM 26.4 °F - 26.1 °F 99% 30.29 in 10.0 mi Calm Calm - N/A   Clear
7:55 AM 28.2 °F - 27.5 °F 97% 30.30 in 10.0 mi Calm Calm - N/A   Clear
8:15 AM 30.4 °F - 28.4 °F 92% 30.31 in 10.0 mi Calm Calm - N/A   Clear
8:35 AM 32.0 °F - 28.0 °F 85% 30.31 in 10.0 mi Calm Calm - N/A   Clear
8:55 AM 32.9 °F - 27.9 °F 82% 30.31 in 10.0 mi Calm Calm - N/A   Clear
9:15 AM 34.2 °F - 28.2 °F 79% 30.31 in 10.0 mi Calm Calm - N/A   Clear
9:35 AM 35.6 °F 32.8 °F 26.4 °F 69% 30.31 in 10.0 mi East 3.5 mph - N/A   Clear
9:55 AM 36.5 °F - 25.9 °F 65% 30.31 in 10.0 mi Calm Calm - N/A   Clear
10:15 AM 37.6 °F - 25.7 °F 62% 30.32 in 10.0 mi Calm Calm - N/A   Clear
10:35 AM 39.2 °F - 25.0 °F 57% 30.31 in 10.0 mi Calm Calm - N/A   Clear
10:55 AM 40.3 °F - 24.8 °F 54% 30.31 in 10.0 mi Calm Calm - N/A   Clear
11:15 AM 42.3 °F - 26.1 °F 53% 30.30 in 10.0 mi Calm Calm - N/A   Clear
11:35 AM 42.8 °F - 25.5 °F 51% 30.29 in 10.0 mi Calm Calm - N/A   Clear
11:55 AM 43.5 °F - 24.4 °F 47% 30.28 in 10.0 mi Calm Calm - N/A   Clear
12:15 PM 45.3 °F - 22.8 °F 41% 30.27 in 10.0 mi Calm Calm - N/A   Clear
12:35 PM 45.5 °F - 21.0 °F 38% 30.27 in 10.0 mi Calm Calm - N/A   Clear
12:55 PM 46.4 °F - 24.3 °F 42% 30.26 in 10.0 mi Calm Calm - N/A   Clear
1:15 PM 46.9 °F - 25.9 °F 44% 30.26 in 10.0 mi West 3.5 mph - N/A   Clear
1:35 PM 47.5 °F - 19.2 °F 33% 30.26 in 10.0 mi South 3.5 mph - N/A   Clear
1:55 PM 48.0 °F - 21.9 °F 36% 30.25 in 10.0 mi Calm Calm - N/A   Clear
2:15 PM 48.4 °F - 24.8 °F 40% 30.24 in 10.0 mi Calm Calm - N/A   Clear
2:35 PM 48.6 °F - 23.2 °F 37% 30.24 in 10.0 mi WSW 3.5 mph - N/A   Clear
2:55 PM 48.9 °F - 23.2 °F 36% 30.23 in 10.0 mi Calm Calm - N/A   Clear
3:15 PM 48.9 °F - 21.2 °F 34% 30.23 in 10.0 mi Calm Calm - N/A   Clear
3:35 PM 49.3 °F - 21.0 °F 33% 30.22 in 10.0 mi Calm Calm - N/A   Clear
3:55 PM 49.1 °F - 15.1 °F 26% 30.22 in 10.0 mi Calm Calm - N/A   Clear
4:15 PM 48.7 °F - 19.4 °F 31% 30.22 in 10.0 mi Calm Calm - N/A   Clear
4:35 PM 47.1 °F - 23.7 °F 40% 30.22 in 10.0 mi Calm Calm - N/A   Clear
4:55 PM 39.6 °F - 27.3 °F 62% 30.22 in 10.0 mi Calm Calm - N/A   Clear
5:15 PM 36.9 °F - 25.9 °F 64% 30.21 in 10.0 mi Calm Calm - N/A   Clear
5:35 PM 36.3 °F 33.7 °F 23.5 °F 60% 30.21 in 7.0 mi NE 3.5 mph - N/A   Clear
5:55 PM 36.3 °F - 24.3 °F 62% 30.22 in 10.0 mi Calm Calm - N/A   Clear
6:15 PM 34.9 °F - 23.9 °F 64% 30.22 in 10.0 mi Calm Calm - N/A   Clear
6:35 PM 33.1 °F - 23.7 °F 68% 30.23 in 10.0 mi Calm Calm - N/A   Clear
6:55 PM 31.8 °F - 23.2 °F 70% 30.23 in 10.0 mi Calm Calm - N/A   Clear
7:15 PM 31.5 °F - 23.0 °F 71% 30.23 in 10.0 mi Calm Calm - N/A   Clear
7:35 PM 31.1 °F - 23.5 °F 74% 30.23 in 10.0 mi Calm Calm - N/A   Clear
7:55 PM 31.3 °F - 23.5 °F 73% 30.24 in 10.0 mi Calm Calm - N/A   Clear
8:15 PM 31.3 °F - 23.0 °F 71% 30.24 in 10.0 mi Calm Calm - N/A   Clear
8:35 PM 30.6 °F - 25.0 °F 80% 30.24 in 10.0 mi Calm Calm - N/A   Clear
8:55 PM 31.1 °F - 24.8 °F 77% 30.24 in 10.0 mi Calm Calm - N/A   Clear
9:15 PM 29.1 °F - 23.5 °F 80% 30.25 in 10.0 mi Calm Calm - N/A   Clear
9:35 PM 29.7 °F - 24.1 °F 80% 30.25 in 10.0 mi Calm Calm - N/A   Clear
9:55 PM 29.8 °F - 24.4 °F 80% 30.25 in 10.0 mi Calm Calm - N/A   Clear
10:15 PM 27.7 °F - 23.7 °F 85% 30.25 in 10.0 mi Calm Calm - N/A   Clear
10:35 PM 29.1 °F - 25.2 °F 85% 30.25 in 10.0 mi Calm Calm - N/A   Clear
10:55 PM 28.0 °F - 23.9 °F 84% 30.24 in 10.0 mi Calm Calm - N/A   Clear
11:15 PM 28.6 °F - 24.3 °F 84% 30.24 in 10.0 mi Calm Calm - N/A   Clear
11:35 PM 28.9 °F - 25.3 °F 86% 30.24 in 10.0 mi Calm Calm - N/A   Clear
11:55 PM 29.3 °F - 26.2 °F 88% 30.23 in 10.0 mi Calm Calm - N/A   Clear